Das Wetter in  D-61279 Heinzenberg / Taunus





Wetter Minimum- & Maximum-Werte im März 2015

Standort: Heinzenberg / Taunus - Höhe 297 m         8° 24' 1" Ost 50° 21' 51" Nord
(   3-stündige Aktualisierung    letzte Aktualisierung um 20:46 am 31.03.2015  )


Messgrösse

Minimum

Maximum

Durchschnitt

Temperatur West /
Luftfeuchte West
Anklicken für Monats-Diagramm

-4,3 °C

06:33
23.03.2015

37 %

15:08
17.03.2015

20,3 °C

14:49
18.03.2015

92 %

09:18
11.03.2015

Temp

5,0 °C

Feuchte

75 %

Temperatur Ost /
Luftfeuchte Ost
Anklicken für Monats-Diagramm

-4,1 °C

06:48
23.03.2015

--

--
--

22,5 °C

15:08
17.03.2015

--

--
--

5,2 °C

--

Luftdruck Anklicken für Monats-Diagramm

992,8 hPa

06:55
31.03.2015

1039,3 hPa

07:04
06.03.2015

1020,5 hPa

Taupunkt

-6,6 °C

06:23
23.03.2015

8,4 °C

08:05
31.03.2015

0,7 °C

Windchill
( gefühlte Temperatur )

-14,2 °C

18:15
02.03.2015

20,1 °C

14:54
18.03.2015

1,7 °C

Windgeschwindigkeit /
Windrichtung
Anklicken für Monats-Diagramm

---

65,9 km/h / W

19:35
31.03.2015

10,5 km/h
W

Helligkeit /
Sonnenschein
Anklicken für Monats-Diagramm
Anklicken für Monats-Diagramm

Sonnenschein:

102:51 Stunden

Max: 9:50 Std am
11.03.2015

87,5 klux

13:45
31.03.2015

19,9 klux

Solarstrahlung Anklicken für Monats-Diagramm

---

599 W/m²

13:45
31.03.2015

148 W/m²

Regenmenge
    März 2015
Anklicken für Monats-Diagramm

Insgesamt 32,5 l/m²

in 61:30 Stunden
an 17 Tagen

12,0 l/m²

21:18
29.03.2015

Gesamtmenge

32,5 l/m²

Regen-Tage
    März 2015
Anklicken für Monats-Diagramm

>   0 mm/Tag

>   2 mm/Tag

>   5 mm/Tag

> 10 mm/Tag

> 20 mm/Tag

17 Tage     
5 Tage     
3 Tage     
  1 Tag     
0 Tage     

Eisige Tage März 2015 / 2014

Tmin ≤ -10°C     

0 Tage

/

0 Tage

Eistage März 2015 / 2014

Tmax <     0°C     

0 Tage

/

0 Tage

Frosttage März 2015 / 2014

Tmin ≤     0°C     

16 Tage

/

15 Tage

Kalte Tage März 2015 / 2014

Tmax <   10°C     

12 Tage

/

5 Tage

Warme Tage März 2015 / 2014

Tmax ≥   20°C     

  1 Tag

/

5 Tage

Sommertage März 2015 / 2014

Tmax ≥   25°C     

0 Tage

/

0 Tage

Heisse Tage März 2015 / 2014

Tmax ≥   30°C     

0 Tage

/

0 Tage


Monatsdiagramm März 2015

Die Kurven zeigen den Durchschnittswert des jeweiligen Tages an


Wetter-Monatsübersicht März 2015
Datum
  Temperatur
   Luftdruck
   Wind
  Regen
   Luftfeuchte
   Helligkeit

Sonnen-
schein

Ø
Temp.

Min.
Temp.

Max.
Temp.

Ø
Luftdruck

Min.
Luftdruck

Max.
Luftdruck

Ø-Geschw.
Haupt-Richtg.

Max.
Wind

Menge /
Dauer

Ø
Feuchte

Min.
Feuchte

Max.
Feuchte

Ø
Helligkeit

Max.
Helligkeit

1.
März
5,7 °C2,1 °C
05:20
10,4 °C
16:45
1006,3 hPa1001,7 hPa
23:35
1013,6 hPa
00:00
20,1 km/h
W-SW
41,9 km/h
14:45  
6,1 l/m²
4:10 Stunden
77 %65 %
15:45
91 %
11:05
14,6 klux70,1 klux
12:05
1:30 Std 
2.
März
4,3 °C0,9 °C
22:26
8,7 °C
15:30
1006,9 hPa999,6 hPa
03:15
1017,9 hPa
23:56
24,5 km/h
W
50,1 km/h
17:05  
2,6 l/m²
4:30 Stunden
79 %52 %
15:45
89 %
09:25
19,6 klux61,7 klux
10:55
3:15 Std 
3.
März
4,1 °C0,6 °C
04:11
9,1 °C
14:46
1018,9 hPa1016,0 hPa
16:01
1021,2 hPa
07:16
24,2 km/h
W-SW
45,4 km/h
18:01  
0,8 l/m²
2:56 Stunden
73 %55 %
15:56
87 %
22:27
24,5 klux63,1 klux
12:40
5:20 Std 
4.
März
2,7 °C0,5 °C
07:27
7,2 °C
15:52
1025,6 hPa1019,9 hPa
00:02
1031,3 hPa
23:42
16,7 km/h
W
41,6 km/h
16:27  
2,1 l/m²
3:20 Stunden
81 %61 %
16:07
89 %
02:27
20,7 klux67,8 klux
12:37
3:45 Std 
5.
März
3,3 °C-0,4 °C
23:59
7,5 °C
15:13
1036,1 hPa1031,3 hPa
00:02
1039,0 hPa
23:59
8,8 km/h
NW
25,8 km/h
01:27  
---
76 %61 %
15:23
87 %
00:02
17,0 klux54,1 klux
15:03
1:49 Std 
6.
März
2,4 °C-2,6 °C
07:04
8,0 °C
16:54
1037,3 hPa1034,7 hPa
16:54
1039,3 hPa
07:04
3,5 km/h
SO
18,2 km/h
11:59  
---
76 %61 %
15:19
87 %
08:54
16,9 klux68,1 klux
11:14
2:05 Std 
7.
März
3,2 °C-2,2 °C
04:45
12,0 °C
15:10
1033,1 hPa1030,3 hPa
16:35
1036,0 hPa
02:25
4,1 km/h
W-SW
23,6 km/h
13:05  
---
72 %53 %
15:20
86 %
09:05
20,8 klux52,2 klux
13:15
1:15 Std 
8.
März
5,2 °C-2,2 °C
07:26
14,0 °C
13:06
1026,8 hPa1022,9 hPa
18:16
1030,7 hPa
02:01
2,4 km/h
SO
14,4 km/h
15:01  
---
70 %50 %
12:51
86 %
09:06
23,0 klux53,0 klux
11:41
3:45 Std 
9.
März
6,3 °C-1,0 °C
07:01
16,0 °C
16:21
1026,4 hPa1024,4 hPa
16:21
1029,5 hPa
08:26
3,6 km/h
SO
16,7 km/h
17:01  
---
74 %56 %
16:26
86 %
10:21
28,5 klux66,1 klux
12:17
6:33 Std 
10.
März
4,3 °C-0,5 °C
06:47
8,0 °C
12:42
1027,7 hPa1026,0 hPa
00:02
1030,2 hPa
23:58
2,1 km/h
SO
12,3 km/h
12:57  
0,9 l/m²
4:00 Stunden
88 %81 %
00:02
90 %
13:42
6,3 klux17,5 klux
10:27
--- 
11.
März
3,3 °C-2,2 °C
07:18
11,6 °C
17:08
1030,8 hPa1029,1 hPa
17:08
1032,9 hPa
08:28
3,8 km/h
SO
15,4 km/h
15:58  
---
10 Minuten
74 %46 %
16:18
92 %
09:18
32,9 klux55,6 klux
13:13
9:50 Std 
12.
März
3,7 °C-3,2 °C
07:19
12,8 °C
17:14
1030,5 hPa1026,9 hPa
17:24
1033,1 hPa
07:19
4,0 km/h
SO
19,3 km/h
13:39  
---
69 %47 %
16:19
85 %
08:54
32,3 klux64,3 klux
12:34
9:30 Std 
13.
März
2,1 °C-3,0 °C
07:00
6,8 °C
13:35
1025,6 hPa1023,5 hPa
13:35
1028,7 hPa
01:30
6,6 km/h
O
24,9 km/h
12:40  
---
70 %58 %
13:25
84 %
08:20
18,3 klux71,2 klux
13:25
2:49 Std 
14.
März
2,3 °C-0,9 °C
04:51
5,1 °C
16:21
1026,2 hPa1025,1 hPa
00:01
1027,3 hPa
09:01
3,3 km/h
NO
19,1 km/h
14:11  
0,2 l/m²
2:00 Stunden
78 %71 %
00:01
85 %
20:21
7,3 klux20,8 klux
13:06
--- 
15.
März
3,1 °C-0,6 °C
23:43
5,7 °C
13:22
1025,7 hPa1024,7 hPa
13:22
1027,2 hPa
07:52
2,7 km/h
NO
16,4 km/h
15:37  
0,6 l/m²
4:09 Stunden
83 %77 %
18:12
88 %
08:27
6,6 klux23,0 klux
12:57
--- 
16.
März
5,0 °C-2,3 °C
06:48
15,6 °C
15:08
1023,9 hPa1021,4 hPa
15:08
1025,6 hPa
01:18
3,6 km/h
O-SO
23,8 km/h
13:43  
---
25 Minuten
72 %44 %
14:53
90 %
09:53
26,0 klux57,1 klux
12:43
4:45 Std 
17.
März
8,0 °C-0,4 °C
04:53
19,9 °C
15:08
1024,4 hPa1021,9 hPa
15:08
1026,5 hPa
06:43
4,8 km/h
SO
25,8 km/h
15:33  
---
66 %37 %
15:08
87 %
08:43
29,6 klux54,9 klux
12:18
6:05 Std 
18.
März
9,7 °C1,0 °C
06:54
20,3 °C
14:49
1024,6 hPa1021,8 hPa
15:44
1026,3 hPa
06:54
4,5 km/h
SO
16,6 km/h
17:54  
---
67 %40 %
13:59
86 %
08:39
29,6 klux57,1 klux
12:49
6:45 Std 
19.
März
7,9 °C2,7 °C
07:15
18,1 °C
15:20
1025,9 hPa1024,2 hPa
15:20
1027,4 hPa
10:45
3,4 km/h
NW
17,1 km/h
16:40  
---
74 %46 %
15:15
87 %
08:50
23,9 klux55,9 klux
11:10
3:10 Std 
20.
März
5,5 °C0,3 °C
07:06
15,9 °C
16:06
1024,0 hPa1019,6 hPa
17:51
1027,5 hPa
07:36
2,7 km/h
W-NW
11,6 km/h
17:16  
---
74 %44 %
16:01
90 %
09:21
21,6 klux55,4 klux
12:51
4:55 Std 
21.
März
3,4 °C0,3 °C
01:42
6,6 °C
15:52
1018,0 hPa1016,3 hPa
15:52
1021,1 hPa
23:58
7,6 km/h
NW
21,0 km/h
07:26  
0,5 l/m²
2:41 Stunden
83 %74 %
00:02
88 %
05:47
6,0 klux39,1 klux
14:57
--- 
22.
März
2,6 °C-1,8 °C
23:48
7,6 °C
17:08
1023,5 hPa1021,1 hPa
00:03
1026,0 hPa
11:03
6,8 km/h
NO
22,8 km/h
07:43  
---
59 Minuten
78 %63 %
17:13
90 %
04:58
15,3 klux36,7 klux
12:18
2:05 Std 
23.
März
3,0 °C-4,3 °C
06:33
13,3 °C
14:48
1017,6 hPa1012,7 hPa
22:29
1023,6 hPa
00:23
3,3 km/h
SO
21,1 km/h
15:33  
---
73 %51 %
14:33
86 %
08:23
23,4 klux67,1 klux
13:03
2:45 Std 
24.
März
4,6 °C-1,9 °C
05:04
12,0 °C
17:24
1009,2 hPa1006,3 hPa
17:34
1013,0 hPa
00:34
2,2 km/h
SO
13,0 km/h
13:19  
---
75 %61 %
16:59
86 %
09:09
13,5 klux52,1 klux
11:59
5 Min 
25.
März
7,3 °C0,5 °C
03:50
17,9 °C
14:50
1005,2 hPa1002,5 hPa
14:50
1007,1 hPa
23:40
9,6 km/h
W-NW
30,8 km/h
16:00  
---
73 %47 %
15:00
86 %
08:20
29,6 klux71,4 klux
11:30
6:25 Std 
26.
März
5,8 °C3,5 °C
19:45
10,9 °C
15:00
1008,6 hPa1006,5 hPa
15:55
1010,4 hPa
19:45
14,2 km/h
W-NW
37,7 km/h
18:35  
0,5 l/m²
2:40 Stunden
76 %51 %
17:50
85 %
09:50
12,9 klux56,1 klux
14:46
10 Min 
27.
März
5,9 °C4,0 °C
07:21
8,1 °C
15:46
1017,2 hPa1010,3 hPa
01:11
1023,7 hPa
23:22
18,3 km/h
W
39,3 km/h
15:46  
0,3 l/m²
2:45 Stunden
74 %60 %
16:26
87 %
01:51
13,6 klux80,9 klux
10:51
1:20 Std 
28.
März
7,5 °C1,6 °C
06:52
13,3 °C
13:27
1019,2 hPa1011,8 hPa
22:58
1024,8 hPa
01:12
14,3 km/h
W-SW
42,1 km/h
17:17  
---
2:00 Stunden
70 %45 %
13:22
85 %
23:33
25,9 klux74,6 klux
13:22
5:10 Std 
29.
März
9,7 °C6,5 °C
22:59
11,2 °C
20:33
1003,3 hPa993,9 hPa
20:38
1011,9 hPa
00:03
30,6 km/h
W-SW
65,3 km/h
21:58  
12,0 l/m²
12:24 Stunden
84 %76 %
06:53
89 %
22:03
8,0 klux22,2 klux
11:53
--- 
30.
März
6,5 °C4,0 °C
23:25
10,0 °C
13:29
1004,2 hPa996,5 hPa
00:04
1012,4 hPa
21:39
28,6 km/h
W-NW
53,6 km/h
12:39  
1,1 l/m²
3:55 Stunden
70 %46 %
13:34
89 %
01:49
27,2 klux79,2 klux
12:44
4:40 Std 
31.
März
7,6 °C3,1 °C
22:20
12,0 °C
06:55
1002,1 hPa992,8 hPa
06:55
1011,5 hPa
21:45
39,4 km/h
W
65,9 km/h
19:35  
5,0 l/m²
8:26 Stunden
76 %50 %
18:40
89 %
12:20
19,8 klux87,5 klux
13:45
3:05 Std 



März
2015

Temperatur

  

Luftdruck

  

Wind

  

Regen

  

Luftfeuchte

  

Helligkeit

Sonnen-
schein

Ø

Min

Max

Ø

Min

Max

Ø

Max

Max

Ø

Min

Max

Ø

Max

Max

5,0 °C

-4,3 °C

06:33 Uhr
23.03.2015

20,3 °C

14:49 Uhr
18.03.2015

1020,5 hPa

992,8 hPa

06:55 Uhr
31.03.2015

1039,3 hPa

07:04 Uhr
06.03.2015

10,5 km/h

W

65,9 km/h

19:35 Uhr
31.03.2015

12,0 l/m²

12:24 Stunden
29.03.2015

75 %

37 %

15:08 Uhr
17.03.2015

92 %

09:18 Uhr
11.03.2015

19,9 klux

87,5 klux

13:45 Uhr
31.03.2015

9:50 Std

am
11.03.2015

Gesamt

Gesamt

32,5 l/m²

17 Tage
61:30 h

102:51 Std


Wetter-Diagramme März 2015     Heinzenberg / Taunus   
TemperaturLuftfeuchte
SolarstrahlungLuftdruck
HelligkeitSonnenschein
RegenmengeRegendauer
Wind-GeschwindigkeitWind-Richtung